Location: Gönnheim
(49.4488°N, 8.2383°E)
Time: 09:47:12
(UTC+00:00)

SL-16 R/B - Pass Details

Date: 19 May 2025
Orbit: 841 x 844 km, 71.0° (Epoch: 23 June)

Event Time Altitude Azimuth Distance (km) Brightness Sun altitude
Rises 20:56:50 0° 334° (NNW) 3,414 7.2 -13.3°
Reaches altitude 10° 20:59:46 10° 348° (NNW) 2,476 5.8 -13.6°
Maximum altitude 21:04:22 25° 42° (NE) 1,666 3.9 -14.0°
Drops below altitude 10° 21:08:56 10° 96° (E) 2,467 4.3 -14.4°
Enters shadow 21:09:28 - 100° (E) 2,623 4.4 -14.5°
